Location: Julian California
(33.0790°N, 116.6010°W)
Time: 06:29:18
(UTC-07:00)

USA 234 - Pass Details

Date: 14 June 2018
Orbit: 1102 x 1105 km, 123.0° (Epoch: 14 June)

Event Time Altitude Azimuth Distance (km) Brightness Sun altitude
Rises 23:34:49 0° 41° (NE) 3,921 6.5 -31.1°
Reaches altitude 10° 23:37:18 10° 41° (NE) 2,961 5.8 -31.2°
Maximum altitude 23:43:51 86° 315° (NW) 1,108 3.1 -31.6°
Enters shadow 23:43:58 85° 280° (W) 1,109 3.1 -31.7°
